星链-31101 (STARLINK-31101 )

导读 | 豆包AI

STARLINK-31101是美国太空探索技术公司(SpaceX)星链互联网卫星项目中的一颗卫星,于2024年1月7日发射升空。该卫星属于星链星座组网卫星,旨在为全球范围内提供低延迟、高速率的宽带互联网服务,是SpaceX推进星链大规模星座部署的组成部分,依托星链星座的低轨布局,可补充全球互联网覆盖能力。

基本信息
目录编号:
58737
目录名称:
STARLINK-31101
国际标识:
2024-005K
轨道中心:
EARTH
卫星名称:
星链-31101
卫星全名:
星链-31101 (STARLINK-31101 )
卫星状态:
在轨 (已飞行844 天)
发射日期:
2024-01-07 UTC
国别 :
美国 (US)
星等 :
--
轨道信息
数据来源 国际轨道数据
星历时间: 2026-04-30T19:17:58+0800
10小时前
查看轨道信息
半长轴: 6861.23km
偏心率: 0.0002235
轨道倾角: 43.001°
近地点辐角 272.675°
升交点赤经 287.253°
平近点角 87.384°
近地点: 481.559km
远地点: 484.627km
周期: 94.268分钟
每日圈数: 15.275656
详细信息
固有亮度:
5
最大亮度:
0.3
卫星平台:
Starlink v2.0 mini
覆盖范围:
全球
运营商:
太空探索技术公司
运营商所在国:
美国
制造商(研发单位):
太空探索技术公司
制造商所在国:
美国
使用方式:
暂无
卫星简介
星链(Starlink)计划是由太空探索技术公司(SpaceX)提出的一个巨型低轨卫星互联网星座项目,计划在2019年至2024年间在太空搭建由约1.2万颗卫星组成的“星链”网络,其中1584颗将部署在地球上空550千米处的近地轨道,并从2020年开始工作。该卫星仍在工作。
2D轨道图
3D轨道图
轨道高度分析图
轨道倾角分析图
轨道综合分析图
查看轨道综合分析图